Orbital Elements at Epoch 2459200.5 (2020-Dec-17.0) TDB
Reference: JPL 12 (heliocentric ecliptic J2000)
Element | Value | Uncertainty (1-sigma) | Units |
e | .08182308243990194 | 6.2257e-08 | |
a | 2.795136539701987 | 2.943e-08 | au |
q | 2.566429852183168 | 1.755e-07 | au |
i | 4.665487118250798 | 6.702e-06 | deg |
node | 32.01708636776416 | 6.8961e-05 | deg |
peri | 343.2642069141282 | 7.8031e-05 | deg |
M | 303.1315260810255 | 4.1672e-05 | deg |
tp | 2459470.132377722709 (2021-Sep-12.63237772) | 0.00019999 | TDB |
period | 1706.879915899911 4.67 | 2.6958e-05 7.381e-08 | d yr |
n | .2109111464998396 | 3.3311e-09 | deg/d |
Q | 3.023843227220805 | 3.1839e-08 | au |
|
| | Orbit Determination Parameters
Additional Information
|